User: anonymous   Login
Location: Fort Wayne
(41.1310°N, 85.1290°W)
Time: 12:13:27
(UTC-04:00)
Language:

OPAL - Orbit

View from above orbital plane
View from above orbital plane
View from above satellite
View from above satellite

Ground track
Ground track

The orbit data is extracted from the following two-line orbital elements,

1 26063U 00004C   17292.04524304 -.00000003  00000-0  19234-4 0  9991
2 26063 100.2250 318.7155 0036027 320.4664  39.3890 14.36677668929165
Epoch (UTC): 19 October 2017 01:05:08
Eccentricity: 0.0036027
inclination: 100.2250°
perigee height: 744 km
apogee height: 795 km
right ascension of ascending node: 318.7155°
argument of perigee: 320.4664°
revolutions per day: 14.36677668
mean anomaly at epoch: 39.3890°
orbit number at epoch: 92916

The dashed part of the orbit path shows where the satellite is in the earth's shadow,  

DLR